Other Public Products
Issued by NWS Charleston, SC

Current Version | Previous Version | Text Only | Print | Product List | Glossary Off
Versions: 1 2 3 4 5 6 7 8 9 10 11 12 13 14 15 16 17 18 19 20 21 22 23 24 25 26 27 28 29 30 31 32 33 34 35 36 37 38 39 40 41 42 43 44 45 46 47 48 49 50
000 FPUS82 KCHS 231712 OPUCHS TEST...KCHS/KSAV Gateway Observations...TEST National Weather Service Charleston SC 100 PM EDT MON APR 23 2018 NOTE: "fair" indicates few or no clouds below 12,000 feet with no significant weather and/or obstructions to visibility. SCZ050-WAZ558-NCZ071-TXZ119-213-PAZ071-DCZ001-FLZ074-172-MI076- NYZ176-178-MAZ016-IL014-TNZ027-NJZ106-GAZ044-MD014-231800- ...Gateway Observations for Charleston International... CITY SKY/WX TMP DP RH WIND PRES REMARKS Chas Airport RAIN 65 63 93 E21 30.08F FOG Seattle MOSUNNY 53 40 61 N12 30.35F Charlotte RAIN 58 55 90 E17 30.17F FOG Dallas DFW PTSUNNY 68 51 54 NW12G21 30.08F Dallas Love MOSUNNY 68 52 56 N13 30.10S Philladelphia FAIR 68 36 30 SE5 30.44F Wash National CLOUDY 67 43 41 S10 30.40F Baltimore PTSUNNY 66 40 38 E12 30.42F Miami PTSUNNY 81 73 76 SE15G21 30.05F Detroit FAIR 66 41 40 S10 30.22F Newark FAIR 63 34 33 E7 30.46F Laguardia FAIR 58 31 35 NE13 30.47F J F K FAIR 60 27 28 SE14 30.48F Boston Logan FAIR 56 21 25 E13 30.48F Ft. Lauderdale PTSUNNY 82 76 81 SE17 30.03F Chicago O`Hare PTSUNNY 57 28 33 NE16 30.16F Chicago Midway PTSUNNY 57 30 35 NE14 30.15F Houston Bush FAIR 74 51 44 NW10G22 30.07F Houston Hobby FAIR 73 49 42 NW15G21 30.08F Nashville PTSUNNY 69 59 70 SE14 29.92F Atlanta DRIZZLE 62 61 96 E14 29.98F $$ GAZ044-118-TXZ119-213-NCZ071-DCZ001-MDZ014-506-PAZ021-071-NJZ106- NYZ176-178-MAZ106-OHZ011-021-055-MIZ076-KYZ091-ILZ014-INZ047- MNZ060-ONZ431-231800- ...Gateway Observations for Savannah International... CITY SKY/WX TMP DP RH WIND PRES REMARKS Savannah Arpt CLOUDY 71 69 93 S10 30.01F Atlanta DRIZZLE 62 61 96 E14 29.98F Charlotte RAIN 58 55 90 E17 30.17F FOG Dallas DFW PTSUNNY 68 51 54 NW12G21 30.08F Houston Bush FAIR 74 51 44 NW10G22 30.07F Wash National CLOUDY 67 43 41 S10 30.40F Wash Dulles PTSUNNY 67 42 40 S13 30.39F Baltimore PTSUNNY 66 40 38 E12 30.42F Philadelphia FAIR 68 36 30 SE5 30.44F Newark FAIR 63 34 33 E7 30.46F Laguardia FAIR 58 31 35 NE13 30.47F J F K FAIR 60 27 28 SE14 30.48F Boston FAIR 56 21 25 E13 30.48F Pittsburg PTSUNNY 69 39 33 SE18G24 30.24F Akron PTSUNNY 70 40 33 SE14 30.21F Cleveland PTSUNNY 72 41 32 S15 30.22F Cincinnati LGT RAIN 54 52 93 E12 30.12F FOG Columbus CLOUDY 66 45 46 S13 30.17S Detroit FAIR 66 41 40 S10 30.22F Chicago O`Hare PTSUNNY 57 28 33 NE16 30.16F Minneapolis FAIR 64 33 31 SW7 30.23S Indianapolis LGT RAIN 54 52 93 E13 30.10F FOG Toronto Canada MOSUNNY 59 25 27 SE9 30.34F $$

USA.gov is the U.S. government's official web portal to all federal, state and local government web resources and services.